Content
SEND FEEDBACK

Daily
Averages
Monthly
Summary
United States of America

DEDHAM, MASSACHUSETTS


Home > North America > United States > Massachusetts
Elevation: 64 feet     Latitude: 42 13N     Longitude: 071 07W

WEATHER
 
SELECT A DAY
Number of Records: 137,104;   Date Range: 10/15/98 - 12/26/14
 
SHARE

PRINT THIS DATA

[ ← Previous Day ]
WEATHER ALMANAC - APRIL 26, 2013
[ Next Day → ]
[ °C ]   °F
Weather ElementAverageHighLow
Temperature48.7 °F57 °F (11:54 am)42.1 °F (10:54 pm)
Dewpoint34.6 °F39.9 °F (6:54 pm)25 °F (1:54 am)
Humidity60.1 %89 % (10:54 pm)40 % (10:54 am)
Barometer30.39 in30.44 in (8:54 pm)30.30 in (1:54 am)
Wind Speed11.6 mph19.6 mph (4:54 am)
Wind Gust26.5 mph (4:54 am)
Weather ElementAverage
Wind DirectionENE (84.3 °)

Weather ElementTotal
Precipitation---
Heating Degree Days15.5 (Base 65)
Averaged from 23 records on April 26, 2013
WEATHER CONDITIONS BREAKOUT
WIND DIRECTION BREAKOUT
WEATHER BY HOUR - APRIL 26, 2013
[ °C ]   °F
Local TimeTemperatureDewpointHumidityBarometerVisibilityWind DirectionWind SpeedGust SpeedPrecipitationEventsConditions
1:54 AM46.9 °F25.0 °F42 %30.30 inNorth (360°)12.7 mph
2:54 AM46.9 °F25.0 °F42 %30.30 inNE (40°)12.7 mph20.7 mph
3:54 AM46.0 °F28.0 °F50 %30.32 inNE (50°)15.0 mph23.0 mph
4:54 AM45.0 °F32.0 °F60 %30.32 inENE (60°)19.6 mph26.5 mph
5:54 AM44.1 °F34.0 °F68 %30.35 inENE (60°)16.1 mph23.0 mph
6:54 AM46.0 °F32.0 °F58 %30.38 inENE (70°)15.0 mph21.9 mph
7:54 AM50.0 °F30.0 °F46 %30.39 inENE (70°)11.5 mph20.7 mph
8:54 AM52.0 °F34.0 °F50 %30.40 inEast (90°)10.4 mph19.6 mph
9:54 AM55.0 °F34.0 °F45 %30.41 inEast (90°)9.2 mph16.1 mph
10:54 AM55.0 °F30.9 °F40 %30.42 inESE (120°)8.1 mph
11:54 AM57.0 °F35.1 °F44 %30.42 inENE (60°)10.4 mph18.4 mph
12:54 PM54.0 °F36.0 °F51 %30.40 inNE (50°)13.8 mph23.0 mph
1:54 PM55.9 °F37.0 °F49 %30.39 inENE (60°)13.8 mph20.7 mph
2:54 PM51.1 °F37.0 °F59 %30.39 inENE (70°)11.5 mph17.3 mph
3:54 PM50.0 °F37.9 °F63 %30.39 inNE (50°)11.5 mph
4:54 PM51.1 °F37.9 °F61 %30.40 inEast (80°)10.4 mph
5:54 PM50.0 °F37.9 °F63 %30.40 inENE (60°)6.9 mph
6:54 PM46.0 °F39.9 °F79 %30.42 inENE (60°)6.9 mph
7:54 PM45.0 °F39.0 °F80 %30.43 inEast (80°)11.5 mph
8:54 PM44.1 °F37.9 °F79 %30.44 inEast (80°)10.4 mph
9:54 PM43.0 °F37.9 °F82 %30.44 inEast (90°)11.5 mph
10:54 PM42.1 °F39.0 °F89 %30.44 inEast (80°)10.4 mph
11:54 PM43.0 °F37.9 °F82 %30.44 inESE (110°)6.9 mph
Hourly data recorded from KMQE, located miles away from Dedham, Massachusetts







STORIES FROM OUR PARTNERS